Simultaneous Nadir Overpasses (SNOs) Predictions

Prediction of SNOs between NPP and TERRA Satellite Orbit:

Table of predicted SNOs for the next 14.0 days since TLE Epoch: 3/31/2012
Index Date (NPP) Time (NPP) Lat,Lon (NPP) SZA (NPP ) Date (TERRA) Time (TERRA) Lat,Lon (TERRA) SZA (TERRA ) Distance(km) Time Diff (sec)
1 03/31/2012 03:46:10 68.22, 122.01 63.84 03/31/2012 03:45:58 68.23, 122.00 63.85 1.18 12
2 03/31/2012 04:36:45 -67.77, -70.10 116.64 03/31/2012 04:35:33 -67.83, -70.83 116.56 31.34 72
3 04/02/2012 19:12:20 -68.34, 70.32 117.06 04/02/2012 19:12:57 -68.33, 70.37 117.08 2.28 37
4 04/02/2012 20:03:03 68.15,-122.14 62.74 04/02/2012 20:02:25 68.17,-122.18 62.75 2.29 38
5 04/05/2012 10:38:38 68.74, 18.24 62.35 04/05/2012 10:39:49 68.64, 19.01 62.23 32.92 71
6 04/05/2012 11:29:12 -68.24,-173.78 118.19 04/05/2012 11:29:24 -68.25,-173.83 118.18 2.83 12
7 04/05/2012 12:19:57 68.16, -6.37 61.72 04/05/2012 12:18:51 68.14, -6.32 61.70 3.08 66
8 04/08/2012 02:55:24 68.33, 134.55 60.92 04/08/2012 02:56:20 68.32, 134.51 60.90 2.53 56
9 04/08/2012 03:46:05 -68.20, -57.96 119.24 04/08/2012 03:45:50 -68.21, -57.99 119.23 1.36 15
10 04/08/2012 04:36:37 67.42, 110.31 59.96 04/08/2012 04:35:28 67.47, 108.81 60.04 63.96 69
11 04/10/2012 19:12:16 68.31,-109.65 59.90 04/10/2012 19:12:44 68.31,-109.60 59.89 1.96 28
12 04/10/2012 20:02:56 -68.13, 57.91 120.30 04/10/2012 20:02:15 -68.15, 57.84 120.28 3.49 41
13 04/13/2012 10:38:28 -68.60,-161.55
